Temperature
18 18 18 18 17 17 17 17 17 16 15 15 15 15 15 14 14 14 14 14 14 14 14 14 14 14 14 13 13 13 13 13 13 13 12 12 12 12
18 18 17 17 17 17 17 17 17 16 16 15 15 15 14 14 14 14 14 14 14 14 14 13 13 13 13 13 13 13 13 12 12 12 12 12 12 12
17 17 17 17 17 17 17 17 17 16 16 15 15 15 14 14 14 14 14 14 14 14 13 13 13 13 13 13 12 12 12 12 12 12 12 12 12 12
17 17 17 17 17 17 17 16 16 16 16 15 15 14 14 14 14 14 14 13 13 13 13 13 13 13 13 12 12 12 12 12 12 12 12 12 11 11
17 17 17 17 17 17 16 16 16 16 16 15 15 14 14 14 14 14 13 13 13 13 13 13 12 12 12 12 12 12 12 12 12 11 11 11 11 11
17 17 17 17 17 17 16 16 16 16 15 15 15 14 14 14 14 13 13 13 13 13 13 12 12 12 12 12 12 12 12 11 11 11 11 11 11 10
17 17 17 17 17 16 16 16 16 15 15 15 15 14 14 14 14 13 13 13 13 12 12 12 12 12 12 12 12 12 12 11 11 11 11 10 10 10
17 17 17 16 16 16 16 16 15 15 15 15 14 14 14 14 14 13 13 13 12 12 12 12 12 12 12 12 12 12 11 11 11 11 10 10 10 10
17 16 16 16 16 16 16 16 15 15 15 15 14 14 14 14 14 13 13 13 13 13 12 12 12 12 12 12 12 11 11 11 11 11 10 10 10 10
16 16 16 16 16 16 16 15 15 15 15 14 14 14 14 14 14 13 13 13 13 12 12 12 12 12 12 12 12 11 11 11 11 11 10 10 10 10
16 16 15 15 15 15 15 15 15 15 14 14 14 14 14 14 13 13 13 12 12 12 12 12 12 12 12 11 11 11 11 11 11 10 10 10 10 9
16 15 15 15 15 15 15 15 14 14 14 14 14 14 14 13 13 13 13 12 12 12 12 12 12 12 11 11 11 11 11 11 11 10 10 10 10 9
15 15 15 15 15 15 14 14 14 14 14 14 13 13 13 13 13 13 13 12 12 12 12 12 12 12 11 11 11 11 11 11 10 10 10 10 9 9
15 15 15 15 15 14 14 14 14 13 13 13 13 13 13 13 13 13 12 12 12 12 12 12 12 11 11 11 11 11 11 10 10 10 10 10 9 9
15 15 15 15 14 14 14 14 13 13 13 13 13 13 13 13 12 12 12 12 12 12 12 12 12 11 11 11 11 11 10 10 10 10 10 9 9 9
15 14 14 14 14 14 14 13 13 13 13 12 12 12 12 12 12 12 12 12 12 12 11 11 11 11 11 11 11 10 10 10 10 10 9 9 9 9
14 14 14 14 14 14 13 13 13 13 12 12 12 12 12 12 12 12 12 11 11 11 11 11 11 11 11 11 10 10 10 10 10 10 9 9 9 9
14 14 14 13 13 13 13 13 13 12 12 12 12 12 12 12 11 11 11 11 11 11 11 11 11 11 10 10 10 10 10 10 10 10 9 9 9 9
14 13 13 13 13 13 13 13 12 12 12 12 12 11 11 11 11 11 11 11 11 11 11 11 11 10 10 10 10 10 10 10 10 9 9 9 9 9
13 13 13 13 13 12 12 12 12 12 12 12 11 11 11 11 11 11 11 11 11 11 11 11 10 10 10 10 10 10 10 10 10 9 9 9 9 8
13 13 13 13 12 12 12 12 12 12 12 11 11 11 11 11 11 11 11 11 11 11 11 10 10 10 10 10 10 10 10 9 9 9 9 9 8 8
13 13 13 13 12 12 12 12 12 12 12 11 11 11 11 11 11 11 11 11 11 10 10 10 10 10 10 10 9 9 9 9 9 9 9 9 8 8
13 13 13 12 12 12 12 12 12 12 11 11 11 11 11 11 10 10 10 10 10 10 10 10 10 9 9 9 9 9 9 9 9 9 9 9 8 8
Wind_Speed
1 1 1 1 1 1 2 3 2 2 2 3 3 4 7 8 10 8 7 8 8 7 7 7 7 7 8 8 8 8 8 8 8 8 8 8 8 7
1 1 1 0 0 1 2 2 2 2 2 2 2 4 5 6 9 9 8 9 8 8 7 7 7 7 8 8 9 9 8 8 8 8 8 8 8 8
1 1 1 1 0 1 1 1 1 2 3 2 3 3 4 4 6 7 7 8 8 8 8 7 7 7 7 8 8 8 8 7 7 7 7 7 8 8
1 1 1 1 1 0 0 0 1 2 4 4 3 3 3 4 5 5 6 6 8 9 10 9 8 8 7 7 7 7 7 6 6 6 6 7 7 7
1 1 1 1 1 1 0 1 1 2 3 4 3 3 3 3 3 3 3 4 6 7 8 9 8 8 8 7 7 7 7 6 6 6 6 7 6 6
2 2 2 1 1 1 1 1 1 2 3 3 4 3 3 3 3 2 2 2 3 6 6 8 9 9 8 8 7 8 8 7 7 7 7 6 6 5
1 1 3 4 5 3 1 1 1 1 2 3 4 4 3 3 3 3 3 3 3 4 4 5 7 7 8 9 9 9 10 9 8 7 7 6 6 6
1 2 3 4 4 4 4 4 2 2 2 2 3 4 4 3 3 3 3 3 3 3 4 5 6 5 8 9 11 12 12 12 11 9 8 7 7 6
1 1 1 2 4 3 3 3 2 2 3 3 2 2 3 3 4 4 3 4 3 3 3 4 4 4 7 10 14 15 14 14 12 11 10 9 8 8
1 1 1 2 2 2 2 2 1 0 0 1 1 1 2 1 2 3 3 3 2 2 3 3 3 3 4 8 14 16 16 15 14 13 12 11 10 9
2 1 2 3 3 2 2 2 2 1 1 2 3 2 3 4 3 1 2 2 3 3 3 2 2 2 2 3 10 15 15 15 15 14 13 12 11 10
3 3 3 3 4 3 2 2 3 3 2 2 2 2 3 5 6 4 3 3 3 2 3 3 2 2 2 2 4 9 11 13 15 15 14 14 12 8
3 3 3 6 5 4 3 3 3 2 3 3 4 4 3 3 4 5 5 3 3 2 2 3 2 2 2 1 2 5 8 8 9 11 13 14 14 12
2 1 2 6 6 6 4 4 3 2 2 3 3 3 4 4 4 4 5 5 4 3 2 2 2 2 2 2 2 3 5 6 7 7 8 11 14 16
2 0 3 5 4 4 6 6 4 3 3 4 4 4 4 3 2 2 3 4 5 6 5 5 3 2 2 3 2 2 3 4 6 5 6 7 8 8
3 2 4 5 5 4 3 4 5 5 4 4 3 3 3 3 3 3 4 4 4 4 5 6 5 3 3 3 3 3 3 4 5 5 5 5 7 10
3 3 3 3 4 4 4 4 4 4 5 4 4 4 3 3 3 3 3 4 5 5 4 3 5 6 4 3 3 3 3 3 4 4 5 5 5 7
3 4 4 4 5 5 5 5 5 5 5 5 5 4 4 4 4 4 4 4 5 5 5 4 4 3 3 3 5 5 4 4 4 4 5 5 5 5
4 5 5 4 4 5 5 5 5 5 4 5 5 5 5 4 4 4 4 5 6 5 5 4 5 5 6 6 5 8 6 4 4 4 4 5 5 5
5 6 5 4 4 5 5 5 4 4 4 4 5 4 4 4 4 4 5 6 6 5 5 4 5 5 6 5 4 4 9 6 4 4 4 4 3 4
6 6 5 5 5 4 5 4 4 4 4 4 4 4 4 5 5 5 5 7 6 5 5 5 5 6 3 2 3 3 4 9 8 5 4 4 3 4
6 6 5 5 5 4 4 4 4 4 4 4 4 4 4 5 6 6 6 5 5 5 5 4 3 3 3 4 6 5 4 4 8 10 8 6 4 4
6 6 5 4 4 4 3 4 4 4 3 3 4 4 4 4 5 5 5 5 4 4 4 4 3 4 4 5 6 5 5 5 4 4 6 9 10 9
Wind_Direction
220 205 227 212 154 157 158 178 176 174 168 161 149 139 132 132 144 138 128 128 120 111 104 99 95 93 93 96 101 100 96 96 97 97 96 96 97 98
206 190 215 170 182 171 188 214 210 181 169 152 152 152 145 143 151 145 140 142 140 133 123 113 105 103 102 102 102 100 100 100 98 96 96 100 100 98
209 172 176 159 177 221 200 217 178 149 143 139 135 141 142 138 142 150 159 153 151 154 146 137 128 121 118 115 113 111 109 106 105 105 106 108 107 106
221 158 162 154 152 300 330 121 128 144 148 148 146 150 152 155 166 176 171 162 156 162 163 157 149 142 138 135 132 129 125 119 117 114 112 114 115 112
109 152 138 137 145 95 21 108 140 144 141 152 158 161 161 169 166 185 167 155 158 156 163 168 163 158 158 153 150 148 143 138 133 129 124 122 120 118
77 73 85 98 100 90 148 121 134 136 148 160 158 163 168 169 166 184 176 184 173 168 164 168 173 174 175 172 172 170 166 159 152 146 142 139 139 137
112 100 88 91 81 65 89 87 124 146 163 158 159 161 166 174 192 195 184 191 196 175 171 175 174 184 188 192 195 192 184 178 173 169 165 163 162 160
152 135 132 121 107 96 87 84 102 170 179 173 176 170 175 189 190 200 192 202 215 183 182 198 185 195 190 191 199 198 194 189 186 185 185 187 187 186
177 185 216 133 134 129 116 110 94 128 172 187 179 179 181 193 193 210 213 216 227 197 186 208 193 200 194 195 193 196 197 196 196 196 199 201 201 199
186 171 146 135 137 122 167 166 179 133 212 169 149 171 174 172 207 220 224 224 226 207 191 222 210 206 194 182 191 195 198 199 200 202 205 208 210 211
199 196 176 140 127 116 169 182 190 210 156 124 130 144 173 177 188 227 244 230 243 222 197 215 222 208 193 188 195 197 198 200 203 206 209 212 214 215
199 180 159 152 159 167 214 217 218 224 209 194 210 213 209 204 201 209 224 234 249 235 202 207 216 205 212 188 178 192 201 206 209 212 214 215 211 209
210 198 176 169 184 200 225 240 229 242 242 223 218 213 211 215 207 211 213 219 241 250 209 193 219 214 212 194 182 191 196 202 207 216 218 218 211 205
274 229 169 175 195 211 222 226 227 244 247 242 231 223 214 216 216 213 210 217 223 239 250 201 228 227 226 228 215 195 200 200 199 205 210 217 220 220
293 34 162 190 204 221 222 222 223 233 241 249 245 234 225 218 209 210 216 225 238 247 236 211 215 238 228 235 234 211 203 204 204 206 205 205 206 208
254 207 190 209 229 235 223 220 225 235 234 241 256 253 225 208 210 213 222 220 227 242 243 229 212 216 233 241 240 235 217 203 207 208 204 210 209 205
202 208 215 211 221 226 225 221 224 232 238 244 255 262 249 226 223 225 228 232 229 230 235 227 214 210 213 224 241 240 234 230 214 206 210 221 213 204
192 223 225 221 227 229 228 228 223 225 231 231 237 244 249 245 234 228 228 230 237 236 231 222 206 213 232 252 227 235 241 239 232 213 211 220 223 210
209 234 237 234 238 242 238 238 234 225 223 228 232 239 243 249 249 240 233 237 239 240 235 222 211 210 226 240 241 218 227 238 233 224 221 223 225 213
229 240 242 241 242 246 247 248 244 235 227 232 234 240 244 250 253 247 240 241 244 241 238 230 224 219 228 235 239 235 213 218 223 236 242 234 217 195
239 244 242 243 246 246 245 241 236 234 233 238 238 235 240 247 254 256 253 249 244 241 237 237 234 228 225 222 245 245 222 214 220 223 233 235 225 216
247 250 250 247 248 253 250 241 241 240 237 239 243 240 241 247 253 256 257 253 248 245 243 239 206 208 219 229 241 246 240 219 222 228 231 227 221 225
239 247 252 254 253 249 251 253 252 252 252 255 253 248 250 256 258 257 253 249 248 248 243 233 221 219 225 231 239 244 240 225 213 217 236 238 236 237
Height
1539 1539 1539 1539 1540 1540 1541 1542 1543 1543 1544 1544 1545 1545 1544 1544 1544 1543 1543 1543 1542 1542 1541 1540 1540 1539 1539 1538 1538 1538 1538 1538 1538 1538 1538 1537 1538 1538
1537 1538 1538 1538 1538 1539 1539 1540 1541 1541 1541 1542 1543 1543 1544 1544 1543 1543 1543 1542 1542 1542 1541 1540 1539 1539 1538 1538 1538 1538 1538 1538 1537 1537 1537 1536 1536 1536
1536 1536 1536 1536 1537 1537 1538 1538 1539 1539 1539 1541 1541 1542 1542 1543 1542 1542 1542 1542 1541 1541 1541 1540 1539 1539 1538 1538 1538 1538 1537 1537 1537 1536 1536 1535 1535 1535
1534 1534 1534 1535 1535 1536 1536 1537 1537 1538 1538 1539 1540 1540 1541 1541 1541 1541 1541 1541 1541 1541 1540 1540 1539 1539 1538 1538 1538 1538 1537 1537 1536 1536 1535 1535 1535 1535
1533 1533 1533 1533 1533 1534 1534 1535 1535 1536 1537 1537 1538 1539 1540 1540 1540 1540 1541 1540 1540 1540 1540 1539 1539 1539 1538 1538 1537 1537 1537 1536 1536 1536 1535 1535 1535 1535
1533 1532 1532 1532 1531 1532 1532 1533 1534 1535 1535 1536 1536 1537 1538 1538 1539 1538 1539 1539 1539 1539 1539 1538 1538 1538 1537 1537 1536 1536 1536 1536 1535 1535 1535 1535 1535 1535
1531 1531 1531 1531 1530 1530 1531 1531 1532 1533 1534 1534 1535 1535 1536 1536 1536 1537 1538 1538 1538 1538 1537 1537 1536 1536 1536 1535 1535 1535 1535 1535 1534 1534 1534 1534 1534 1534
1530 1530 1530 1530 1529 1529 1530 1530 1531 1531 1532 1533 1533 1533 1533 1534 1535 1535 1536 1536 1536 1536 1535 1535 1534 1534 1534 1534 1534 1534 1533 1533 1533 1533 1533 1532 1532 1533
1529 1529 1529 1529 1528 1528 1528 1529 1529 1530 1531 1531 1531 1531 1532 1532 1533 1533 1533 1534 1533 1534 1533 1533 1533 1532 1532 1532 1532 1532 1532 1532 1531 1531 1531 1531 1531 1531
1527 1527 1527 1527 1527 1527 1526 1526 1527 1528 1529 1529 1529 1529 1530 1530 1531 1531 1531 1531 1532 1532 1532 1531 1530 1530 1530 1530 1530 1530 1530 1530 1529 1529 1529 1529 1529 1529
1525 1525 1525 1525 1525 1525 1525 1525 1525 1525 1526 1527 1527 1527 1527 1528 1528 1528 1528 1528 1528 1528 1529 1529 1528 1528 1527 1527 1527 1527 1527 1527 1527 1527 1527 1527 1527 1527
1522 1523 1523 1523 1523 1523 1523 1523 1522 1523 1523 1523 1524 1524 1525 1525 1525 1525 1525 1525 1525 1525 1525 1525 1525 1525 1524 1524 1524 1524 1524 1524 1525 1525 1524 1524 1524 1524
1520 1519 1519 1520 1520 1521 1521 1521 1521 1521 1521 1521 1521 1521 1521 1521 1521 1521 1521 1522 1522 1522 1522 1522 1522 1522 1522 1521 1521 1521 1521 1521 1521 1521 1521 1521 1521 1521
1517 1517 1517 1517 1517 1518 1518 1518 1518 1518 1518 1518 1518 1518 1518 1517 1517 1518 1518 1518 1519 1519 1519 1519 1519 1519 1519 1518 1518 1517 1518 1518 1518 1518 1518 1518 1518 1517
1514 1514 1514 1514 1514 1514 1514 1514 1515 1515 1514 1514 1514 1514 1514 1514 1515 1514 1514 1515 1515 1515 1515 1515 1515 1515 1515 1515 1515 1514 1514 1514 1514 1514 1513 1513 1513 1513
1510 1511 1511 1511 1511 1511 1511 1510 1511 1511 1511 1511 1511 1511 1511 1511 1511 1511 1510 1511 1510 1511 1511 1511 1511 1511 1511 1511 1511 1510 1510 1510 1509 1509 1509 1509 1509 1509
1507 1507 1507 1507 1507 1507 1507 1507 1507 1507 1507 1507 1507 1507 1507 1507 1506 1507 1507 1507 1507 1506 1507 1507 1507 1507 1507 1507 1507 1506 1506 1506 1506 1506 1505 1505 1505 1505
1504 1503 1503 1503 1503 1503 1503 1503 1503 1502 1503 1503 1503 1503 1503 1503 1502 1502 1502 1502 1502 1502 1502 1502 1502 1502 1503 1502 1503 1502 1502 1502 1502 1502 1501 1501 1500 1501
1500 1500 1500 1499 1499 1500 1500 1500 1499 1499 1499 1499 1499 1499 1498 1498 1498 1498 1498 1498 1497 1497 1497 1498 1498 1498 1498 1497 1497 1498 1497 1497 1497 1497 1497 1497 1496 1496
1496 1496 1496 1496 1496 1496 1496 1496 1496 1495 1495 1495 1494 1494 1494 1494 1494 1493 1493 1493 1493 1493 1493 1493 1493 1493 1492 1493 1493 1492 1493 1493 1493 1492 1492 1492 1492 1492
1492 1492 1492 1492 1492 1492 1492 1492 1491 1491 1490 1490 1490 1490 1489 1489 1489 1489 1489 1488 1488 1488 1487 1487 1487 1488 1488 1489 1488 1487 1488 1488 1488 1488 1488 1488 1487 1487
1488 1488 1488 1488 1488 1488 1488 1487 1487 1486 1486 1485 1485 1485 1484 1484 1484 1484 1484 1483 1483 1482 1482 1482 1483 1483 1483 1483 1482 1482 1482 1483 1483 1483 1483 1483 1482 1482
1484 1484 1484 1484 1483 1483 1483 1482 1482 1481 1481 1480 1480 1479 1479 1479 1479 1478 1478 1478 1477 1477 1477 1477 1477 1477 1477 1477 1477 1477 1477 1477 1477 1477 1477 1477 1478 1478